Berlin, NH

1:03 AM EDT on July 22, 2017 (GMT -0400)
Berlin Municipal

Weather History for KBML - March, 2013

Change the Weather History Date:

Saturday, March 30, 2013

  Actual Average Record
Temperature  
Mean Temperature 36 °F -  
Max Temperature 48 °F 38 °F 72 °F (1998)
Min Temperature 23 °F 20 °F -2 °F (2008)
Degree Days  
Heating Degree Days 30    
Moisture  
Dew Point 20 °F    
Average Humidity 58    
Maximum Humidity 88    
Minimum Humidity 24    
Precipitation  
Precipitation 0.00 in - - ()
Sea Level Pressure  
Sea Level Pressure 30.05 in    
Wind  
Wind Speed 2 mph (WNW)    
Max Wind Speed 10 mph    
Max Gust Speed 20 mph    
Visibility 10 miles    
Events      
Averages and records for this station are not official NWS values.
T = Trace of Precipitation, MM = Missing Value Source: NWS Daily Summary

Daily Weather History Graph

Daily Weather History Graph

Search for Another Location

Airport or City:

Trip Planner

Search our weather history database for the weather conditions in past years. The results will help you decide how hot, cold, wet, or windy it might be!

Date:

Astronomy

Mar. 30, 2013 Rise Set
Actual Time 6:28 AM EDT 7:09 PM EDT
Civil Twilight 5:59 AM EDT 7:39 PM EDT
Nautical Twilight 5:24 AM EDT 8:14 PM EDT
Astronomical Twilight 4:48 AM EDT 8:50 PM EDT
Moon 11:23 PM EDT (3/30) 8:12 AM EDT (3/30)
Length of Visible Light 13h 39m
Length of Day
12h 41m
Waning Gibbous, 86% of the Moon is Illuminated
Mar 30
Waning Gibbous
Apr 3
Last Quarter
Apr 10
New
Apr 18
First Quarter
Apr 25
Full

Hourly Weather History & Observations

Time (EDT) Temp. Windchill Dew Point Humidity Pressure Visibility Wind Dir Wind Speed Gust Speed Precip Events Conditions
12:52 AM 33.1 °F - 28.9 °F 85% 30.04 in 10.0 mi Calm Calm - N/A   Mostly Cloudy
1:52 AM 32.0 °F - 28.0 °F 85% 30.04 in 10.0 mi Calm Calm - N/A   Overcast
2:52 AM 30.0 °F - 27.0 °F 88% 30.03 in 10.0 mi Calm Calm - N/A   Partly Cloudy
3:52 AM 30.0 °F - 27.0 °F 88% 30.04 in 10.0 mi Calm Calm - N/A   Mostly Cloudy
5:52 AM 28.0 °F - 25.0 °F 88% 30.04 in 10.0 mi Calm Calm - N/A   Overcast
6:52 AM 25.0 °F - 21.9 °F 88% 30.06 in 10.0 mi Calm Calm - N/A   Partly Cloudy
7:52 AM 30.0 °F - 27.0 °F 88% 30.06 in 10.0 mi Calm Calm - N/A   Clear
8:52 AM 39.0 °F 34.8 °F 26.1 °F 60% 30.06 in 10.0 mi WNW 5.8 mph - N/A   Clear
9:52 AM 41.0 °F 36.4 °F 24.1 °F 51% 30.06 in 10.0 mi West 6.9 mph - N/A   Clear
10:52 AM 43.0 °F 37.7 °F 19.0 °F 38% 30.05 in 10.0 mi West 9.2 mph - N/A   Clear
11:52 AM 45.0 °F 41.8 °F 15.1 °F 30% 30.04 in 10.0 mi NW 5.8 mph - N/A   Clear
12:52 PM 46.0 °F 41.0 °F 15.1 °F 29% 30.03 in 10.0 mi NW 10.4 mph - N/A   Clear
1:52 PM 46.9 °F - 14.0 °F 27% 30.02 in 10.0 mi Variable 4.6 mph - N/A   Clear
2:52 PM 46.9 °F - 14.0 °F 27% 30.02 in 10.0 mi West 10.4 mph 16.1 mph N/A   Clear
3:52 PM 46.9 °F - 12.9 °F 25% 30.02 in 10.0 mi WNW 9.2 mph - N/A   Clear
4:52 PM 46.9 °F - 12.0 °F 24% 30.02 in 10.0 mi Variable 5.8 mph 19.6 mph N/A   Clear
5:52 PM 46.0 °F 43.1 °F 12.0 °F 25% 30.04 in 10.0 mi NW 5.8 mph - N/A   Clear
6:52 PM 43.0 °F 41.3 °F 10.9 °F 27% 30.05 in 10.0 mi Variable 3.5 mph - N/A   Clear
7:52 PM 33.1 °F - 19.0 °F 56% 30.08 in 10.0 mi Calm Calm - N/A   Clear
8:52 PM 28.9 °F - 19.9 °F 69% 30.10 in 10.0 mi Calm Calm - N/A   Clear
9:52 PM 27.0 °F - 21.0 °F 78% 30.11 in 10.0 mi Calm Calm - N/A   Clear
10:52 PM 25.0 °F - 19.0 °F 78% 30.10 in 10.0 mi Calm Calm - N/A   Clear
11:52 PM 23.0 °F - 19.0 °F 85% 30.11 in 10.0 mi Calm Calm - N/A   Clear